Location: Antioch Baptist Church
(32.6696°N, 85.7327°W)
Time: 23:55:11
(UTC+00:00)

Cosmos 2237 Rocket - Pass Details

Date: 14 July 2020
Orbit: 835 x 850 km, 71.0° (Epoch: 12 August)

Event Time Altitude Azimuth Distance (km) Brightness Sun altitude
Rises 01:12:46 0° 165° (SSE) 3,392 4.9 -4.7°
Reaches altitude 10° 01:15:40 10° 151° (SSE) 2,463 4.1 -5.2°
Maximum altitude 01:20:00 23° 101° (E) 1,730 3.3 -6.0°
Drops below altitude 10° 01:24:21 10° 51° (NE) 2,477 4.4 -6.8°
Sets 01:27:16 0° 37° (NE) 3,417 5.3 -7.3°
